Volver al catálogo

ATLAS 5 CENTAUR DEB

LostHEO
NORAD 46644·DEBRIS·🇺🇸 United States

Lanzado Sep 17, 2014 desde Cape Canaveral Space Force Station

Loading…

Próximos Pases (próximas 24 horas)

TLE

ObsoletoSource: Space-Track

Época: Nov 30, 2020, 06:11 UTC

1 46644U 14055CU  20335.25805747 -.00000097  00000-0  00000+0 0  9996
2 46644  22.8961 338.2358 3339827 147.1837 238.8513  1.78812661   967

Sigue ATLAS 5 CENTAUR DEB en tiempo real con AllMySat

Download on the App Store